EW4993 Weather Reports


time (UTC)temp
C
wind
direction
speed
KPH
gust
KPH
rain 1hr
cm
rain 24hr
cm
rain mn
cm
humidity
%
barometer
mb
20260504081513 14 207 4.8 9.7 0.00 0.00 0.00 82 989.7
20260504050117 16 213 6.4 14.5 0.00 0.00 0.00 79 991.8
20260504044549 16 202 6.4 14.5 0.00 0.00 0.00 77 991.8
20260504043032 16 190 8.0 12.9 0.00 0.00 0.00 77 991.8
20260504041534 16 199 4.8 12.9 0.00 0.00 0.00 77 991.9
20260504040013 16 193 4.8 9.7 0.00 0.00 0.00 78 992.0
20260504034514 16 191 0.0 0.0 0.00 0.00 0.00 79 991.9
20260504033052 16 191 0.0 0.0 0.00 0.00 0.00 79 991.9
20260504031614 16 190 0.0 0.0 0.00 0.00 0.00 78 992.0
20260504030039 16 190 0.0 0.0 0.00 0.00 0.00 78 991.9
20260504024529 17 190 0.0 0.0 0.00 0.00 0.00 77 992.0
20260504023009 17 190 0.0 0.0 0.00 0.00 0.00 77 991.8
20260504021506 17 190 0.0 0.0 0.00 0.00 0.00 75 991.7
20260504020047 18 190 0.0 0.0 0.00 0.00 0.00 74 991.5
20260504014546 18 190 0.0 0.0 0.00 0.00 0.00 73 991.3
20260504013027 18 190 0.0 0.0 0.00 0.00 0.00 71 991.2
20260504011523 19 190 0.0 0.0 0.00 0.00 0.00 69 991.3
20260504010001 20 190 0.0 0.0 0.00 0.00 0.00 65 991.3
20260504004558 21 190 1.6 6.4 0.00 0.00 0.00 61 991.3
20260504003042 21 192 1.6 9.7 0.00 0.00 0.00 58 991.3
20260504001537 21 192 4.8 9.7 0.00 0.00 0.00 55 991.4
20260504000015 22 190 4.8 9.7 0.00 0.00 0.00 54 991.6
20260503234511 22 190 3.2 9.7 0.00 0.00 0.00 52 991.7
20260503233050 23 197 4.8 16.1 0.00 0.00 0.00 47 991.8
20260503231551 24 201 8.0 19.3 0.00 0.00 0.00 45 991.7
20260503230025 24 189 9.7 17.7 0.00 0.00 0.00 43 991.8
20260503224523 24 215 12.9 22.5 0.00 0.00 0.00 43 992.1
20260503223004 24 197 8.0 22.5 0.00 0.00 0.00 46 992.2
20260503221502 24 205 9.7 17.7 0.00 0.00 0.00 43 992.4
20260503220044 24 219 9.7 19.3 0.00 0.00 0.00 45 992.5
20260503214550 24 200 11.3 19.3 0.00 0.00 0.00 44 992.8
20260503213032 25 215 11.3 19.3 0.00 0.00 0.00 44 993.0
20260503211523 24 208 8.0 17.7 0.00 0.00 0.00 47 993.3
20260503210001 24 226 8.0 17.7 0.00 0.00 0.00 45 993.6
20260503204621 25 209 11.3 27.4 0.00 0.00 0.00 47 993.7
20260503203041 24 188 6.4 24.1 0.00 0.00 0.00 47 994.1
20260503201541 25 222 8.0 24.1 0.00 0.00 0.00 47 994.4
20260503200021 25 188 11.3 16.1 0.00 0.00 0.00 45 994.6
20260503194525 24 211 11.3 20.9 0.00 0.00 0.00 45 994.8
20260503193006 24 215 9.7 22.5 0.00 0.00 0.00 46 995.0
20260503191502 24 212 9.7 17.7 0.00 0.00 0.00 49 995.2
20260503184600 24 208 8.0 20.9 0.00 0.00 0.00 50 995.7
20260503183046 23 180 6.4 17.7 0.00 0.00 0.00 44 995.8
20260503181523 23 215 9.7 16.1 0.00 0.00 0.00 49 996.1
20260503180030 23 203 11.3 19.3 0.00 0.00 0.00 47 996.4
20260503174512 23 179 9.7 16.1 0.00 0.00 0.00 48 996.6
20260503173004 23 229 11.3 19.3 0.00 0.00 0.00 45 996.8
20260503171544 23 231 9.7 20.9 0.00 0.00 0.00 50 997.0